Watertown, SD

2:43 AM CST on February 19, 2018 (GMT -0600)
Watertown Municipal

Weather History for KATY - January, 2013

Change the Weather History Date:

Friday, January 4, 2013

  Actual Average Record
Temperature  
Mean Temperature 14 °F 13 °F  
Max Temperature 23 °F 22 °F 47 °F (2012)
Min Temperature 5 °F 4 °F -28 °F (1912)
Degree Days  
Heating Degree Days 51 52  
Month to date heating degree days 206 208  
Since 1 July heating degree days 3563 3667  
Cooling Degree Days 0 0  
Month to date cooling degree days 0 0  
Year to date cooling degree days 0 0  
Moisture  
Dew Point 10 °F    
Average Humidity 82    
Maximum Humidity 92    
Minimum Humidity 71    
Precipitation  
Precipitation 0.00 in 0.02 in 1.22 in (1997)
Month to date precipitation T 0.07  
Year to date precipitation T 0.07  
Snow  
Snow 0.00 in - - ()
Month to date snowfall T  
Since 1 July snowfall 10.7  
Snow Depth 7.00 in    
Sea Level Pressure  
Sea Level Pressure 30.14 in    
Wind  
Wind Speed 6 mph (SW)    
Max Wind Speed 21 mph    
Max Gust Speed 25 mph    
Visibility 10 miles    
Events      
T = Trace of Precipitation, MM = Missing Value Source: NWS Daily Summary

Daily Weather History Graph

Daily Weather History Graph

Search for Another Location

Airport or City:

Trip Planner

Search our weather history database for the weather conditions in past years. The results will help you decide how hot, cold, wet, or windy it might be!

Date:

Astronomy

Jan. 04, 2013 Rise Set
Actual Time 8:06 AM CST 5:01 PM CST
Civil Twilight 7:33 AM CST 5:34 PM CST
Nautical Twilight 6:56 AM CST 6:11 PM CST
Astronomical Twilight 6:20 AM CST 6:47 PM CST
Moon No Moon Rise 11:29 AM CST (1/4)
Length of Visible Light 10h 01m
Length of Day
8h 54m
Waning Gibbous, 55% of the Moon is Illuminated
Jan 4
Waning Gibbous
Jan 4
Last Quarter
Jan 11
New
Jan 18
First Quarter
Jan 26
Full

Hourly Weather History & Observations

Time (CST) Temp. Windchill Dew Point Humidity Pressure Visibility Wind Dir Wind Speed Gust Speed Precip Events Conditions
12:53 AM 19.0 °F 4.0 °F 12.9 °F 77% 30.13 in 10.0 mi WSW 17.3 mph - N/A   Clear
1:53 AM 19.0 °F 4.0 °F 12.0 °F 74% 30.11 in 10.0 mi WSW 17.3 mph - N/A   Clear
2:53 AM 18.0 °F 6.9 °F 10.0 °F 71% 30.13 in 10.0 mi West 9.2 mph - N/A   Clear
3:53 AM 16.0 °F 2.3 °F 10.0 °F 77% 30.12 in 10.0 mi WSW 12.7 mph - N/A   Clear
4:53 AM 14.0 °F 3.9 °F 8.1 °F 77% 30.13 in 10.0 mi West 6.9 mph - N/A   Clear
5:53 AM 14.0 °F 2.0 °F 8.1 °F 77% 30.14 in 10.0 mi WSW 9.2 mph - N/A   Clear
6:53 AM 12.9 °F 2.6 °F 7.0 °F 77% 30.15 in 10.0 mi West 6.9 mph - N/A   Clear
7:53 AM 10.9 °F - 6.1 °F 81% 30.15 in 10.0 mi Calm Calm - N/A   Clear
8:53 AM 10.9 °F - 6.1 °F 81% 30.16 in 10.0 mi Calm Calm - N/A   Clear
9:53 AM 12.9 °F - 8.1 °F 81% 30.17 in 10.0 mi Calm Calm - N/A   Clear
10:53 AM 18.0 °F 12.7 °F 10.0 °F 71% 30.18 in 10.0 mi WNW 3.5 mph - N/A   Clear
11:53 AM 19.0 °F 13.9 °F 12.0 °F 74% 30.17 in 10.0 mi West 3.5 mph - N/A   Clear
12:53 PM 19.9 °F 12.1 °F 12.9 °F 74% 30.15 in 10.0 mi SSW 5.8 mph - N/A   Clear
1:53 PM 21.9 °F 15.7 °F 15.1 °F 75% 30.14 in 10.0 mi South 4.6 mph - N/A   Clear
2:53 PM 23.0 °F 17.0 °F 16.0 °F 74% 30.13 in 10.0 mi SSW 4.6 mph - N/A   Clear
3:53 PM 21.0 °F 13.4 °F 14.0 °F 74% 30.15 in 10.0 mi South 5.8 mph - N/A   Clear
4:53 PM 19.9 °F - 12.9 °F 74% 30.14 in 10.0 mi Calm Calm - N/A   Clear
5:53 PM 15.1 °F - 10.9 °F 84% 30.15 in 10.0 mi Calm Calm - N/A   Clear
6:53 PM 14.0 °F 6.5 °F 10.0 °F 84% 30.16 in 10.0 mi SSE 4.6 mph - N/A   Clear
7:53 PM 10.9 °F 1.4 °F 8.1 °F 88% 30.15 in 10.0 mi SSE 5.8 mph - N/A   Clear
8:53 PM 10.0 °F 1.8 °F 8.1 °F 92% 30.13 in 10.0 mi SSE 4.6 mph - N/A   Clear
9:53 PM 8.1 °F - 6.1 °F 92% 30.13 in 10.0 mi Calm Calm - N/A   Clear
10:53 PM 7.0 °F -1.7 °F 5.0 °F 92% 30.10 in 10.0 mi SSE 4.6 mph - N/A   Clear
11:53 PM 6.1 °F -4.3 °F 3.9 °F 91% 30.09 in 10.0 mi SSE 5.8 mph - N/A   Clear